DW2235 Weather Reports


time (UTC)temp
C
wind
direction
speed
KPH
gust
KPH
rain 1hr
cm
rain 24hr
cm
rain mn
cm
humidity
%
barometer
mb
20180421191217 15 68 11.3 12.9 0.00 1.07 1.07 83 1017.4
20180421190714 15 90 9.7 14.5 0.00 1.07 1.07 83 1017.4
20180421190217 15 112 11.3 14.5 0.00 1.07 1.07 83 1017.4
20180421185715 15 112 9.7 14.5 0.00 1.07 1.07 83 1017.4
20180421185217 15 68 9.7 12.9 0.00 1.07 1.07 82 1016.3
20180421184714 15 68 9.7 12.9 0.00 1.07 1.07 82 1016.3
20180421184212 15 45 8.0 11.3 0.00 1.07 1.07 82 1016.3
20180421183719 15 68 8.0 12.9 0.00 1.07 1.07 82 1016.3
20180421183217 16 68 8.0 16.1 0.00 1.07 1.07 82 1016.3
20180421182717 16 68 8.0 16.1 0.00 1.07 1.07 82 1016.3
20180421182220 16 68 9.7 14.5 0.00 1.07 1.07 81 1016.3
20180421181720 16 68 12.9 14.5 0.00 1.07 1.07 81 1016.3
20180421181219 16 68 9.7 14.5 0.00 1.07 1.07 81 1016.3
20180421180719 16 90 9.7 16.1 0.00 1.07 1.07 80 1017.4
20180421180217 16 68 9.7 16.1 0.00 1.07 1.07 80 1017.4
20180421175716 16 68 12.9 17.7 0.00 1.07 1.07 80 1017.4
20180421175216 16 68 14.5 17.7 0.00 1.07 1.07 80 1016.3
20180421174720 16 68 11.3 17.7 0.00 1.07 1.07 80 1016.3
20180421174218 16 90 9.7 22.5 0.00 1.07 1.07 79 1016.3
20180421173717 16 68 9.7 20.9 0.00 1.07 1.07 79 1016.3
20180421173220 16 90 12.9 20.9 0.00 1.07 1.07 79 1016.3
20180421172719 16 112 12.9 20.9 0.00 1.07 1.07 79 1016.3
20180421172221 16 112 12.9 20.9 0.00 1.07 1.07 79 1017.4
20180421171721 16 90 16.1 20.9 0.00 1.07 1.07 78 1017.4
20180421171218 16 68 14.5 20.9 0.00 1.07 1.07 78 1017.4
20180421170721 16 68 16.1 20.9 0.00 1.07 1.07 78 1017.4
20180421170220 16 68 12.9 20.9 0.00 1.07 1.07 78 1017.4
20180421165718 16 68 14.5 20.9 0.00 1.07 1.07 79 1017.4
20180421165221 16 68 16.1 20.9 0.00 1.07 1.07 79 1016.3
20180421164722 16 68 12.9 20.9 0.00 1.07 1.07 79 1016.3
20180421164219 16 68 16.1 20.9 0.00 1.07 1.07 79 1016.3
20180421163715 16 68 14.5 24.1 0.00 1.07 1.07 79 1017.4
20180421163217 16 112 12.9 24.1 0.00 1.07 1.07 79 1017.4
20180421162717 16 68 12.9 24.1 0.00 1.07 1.07 80 1017.4
20180421162219 16 68 16.1 20.9 0.00 1.07 1.07 79 1016.3
20180421161719 16 68 14.5 20.9 0.00 1.07 1.07 79 1016.3
20180421161217 16 68 16.1 20.9 0.00 1.07 1.07 79 1016.3
20180421160722 17 68 11.3 24.1 0.00 1.07 1.07 79 1016.3
20180421160220 17 68 16.1 24.1 0.00 1.07 1.07 79 1016.3
20180421155718 17 68 17.7 29.0 0.00 1.07 1.07 78 1016.3
20180421155218 17 112 14.5 29.0 0.00 1.07 1.07 78 1016.3
20180421154721 17 90 16.1 29.0 0.00 1.07 1.07 76 1016.3
20180421154216 17 112 20.9 29.0 0.00 1.07 1.07 75 1016.3
20180421153719 17 112 19.3 27.4 0.00 1.07 1.07 76 1016.3
20180421153217 17 112 17.7 27.4 0.00 1.07 1.07 76 1016.3
20180421152713 17 112 14.5 30.6 0.00 1.07 1.07 76 1016.3
20180421152218 16 90 20.9 30.6 0.00 1.07 1.07 78 1016.3
20180421151711 17 90 19.3 30.6 0.00 1.07 1.07 76 1016.3
20180421151219 17 68 19.3 20.9 0.00 1.07 1.07 76 1016.3
20180421150717 17 68 17.7 22.5 0.00 1.07 1.07 76 1016.3
20180421150218 17 68 17.7 22.5 0.00 1.07 1.07 76 1016.3
20180421145717 17 68 16.1 20.9 0.00 1.07 1.07 75 1016.3
20180421145210 17 112 17.7 19.3 0.00 1.07 1.07 73 1016.3
20180421144719 18 90 12.9 20.9 0.00 1.07 1.07 71 1016.3
20180421144217 17 68 9.7 20.9 0.00 1.07 1.07 71 1016.3
20180421143718 17 112 11.3 20.9 0.00 1.07 1.07 69 1016.3
20180421143220 17 112 12.9 16.1 0.00 1.07 1.07 68 1016.3
20180421142721 17 158 16.1 22.5 0.00 1.07 1.07 66 1016.3
20180421142213 18 158 11.3 22.5 0.00 1.07 1.07 67 1016.3
20180421141715 18 112 14.5 22.5 0.00 1.07 1.07 67 1016.3
20180421141220 17 112 12.9 22.5 0.00 1.07 1.07 67 1016.3
20180421140721 18 158 16.1 20.9 0.00 1.07 1.07 67 1016.3
20180421140220 17 158 14.5 20.9 0.00 1.07 1.07 71 1016.3
20180421135721 17 68 16.1 20.9 0.00 1.07 1.07 70 1016.3
20180421135219 17 112 11.3 20.9 0.00 1.07 1.07 72 1017.4
20180421134719 17 112 9.7 20.9 0.00 1.07 1.07 73 1017.4
20180421134214 17 112 16.1 27.4 0.00 1.07 1.07 72 1017.4
20180421133711 17 112 14.5 27.4 0.00 1.07 1.07 73 1017.4
20180421133212 17 158 12.9 27.4 0.00 1.07 1.07 72 1017.4
20180421132719 17 158 20.9 20.9 0.00 1.07 1.07 71 1017.4
20180421132211 17 112 12.9 24.1 0.00 1.07 1.07 76 1017.4
20180421131712 16 158 12.9 24.1 0.00 1.07 1.07 78 1017.4
20180421131220 16 112 14.5 32.2 0.00 1.07 1.07 76 1017.4
20180421130717 16 202 12.9 32.2 0.00 1.07 1.07 78 1016.3
20180421130222 16 112 19.3 32.2 0.10 1.07 1.07 80 1016.3
20180421125721 16 112 14.5 29.0 0.10 1.07 1.07 79 1016.3
20180421125219 16 112 20.9 37.0 0.10 1.07 1.07 79 1016.3
20180421124720 15 68 19.3 37.0 0.10 1.07 1.07 81 1016.3
20180421124221 15 68 25.7 37.0 0.10 1.07 1.07 83 1016.3
20180421123710 15 90 25.7 29.0 0.10 1.07 1.07 86 1015.3
20180421123219 15 112 20.9 29.0 0.10 1.07 1.07 89 1015.3
20180421122712 14 68 24.1 32.2 0.10 1.07 1.07 88 1015.3
20180421122220 14 68 22.5 32.2 0.10 1.07 1.07 88 1016.3
20180421121721 14 68 22.5 32.2 0.10 1.07 1.07 88 1016.3
20180421121216 14 90 22.5 24.1 0.00 0.97 1.07 89 1016.3
20180421120712 14 68 19.3 29.0 0.00 0.97 0.97 89 1018.4
20180421120220 14 68 16.1 29.0 0.00 0.97 0.97 90 1018.4
20180421115713 14 68 20.9 30.6 0.00 0.97 0.97 90 1018.4
20180421115217 14 112 19.3 30.6 0.10 0.97 0.97 91 1018.4
20180421114719 14 112 16.1 24.1 0.10 0.97 0.97 92 1018.4
20180421114217 14 112 22.5 25.7 0.10 0.97 0.97 92 1018.4
20180421113718 14 112 17.7 27.4 0.10 0.97 0.97 94 1018.4
20180421113219 14 112 17.7 27.4 0.10 0.97 0.97 95 1018.4
20180421112719 14 68 20.9 30.6 0.33 0.97 0.97 95 1018.4
20180421112219 14 112 19.3 30.6 0.33 0.97 0.97 96 1018.4
20180421111720 14 112 20.9 30.6 0.33 0.97 0.97 96 1018.4
20180421111220 14 90 16.1 24.1 0.43 0.97 0.97 96 1018.4
20180421110716 14 68 22.5 24.1 0.43 0.97 0.97 97 1018.4
20180421110219 14 68 16.1 16.1 0.43 0.97 0.97 97 1018.4
20180421105715 14 90 19.3 16.1 0.43 0.97 0.97 97 1018.4
20180421105209 14 68 12.9 14.5 0.43 0.86 0.86 97 1019.4
20180421104716 14 68 11.3 14.5 0.43 0.86 0.86 97 1019.4
20180421104219 14 68 9.7 9.7 0.43 0.86 0.86 97 1019.4
20180421103718 14 90 9.7 9.7 0.43 0.86 0.86 97 1020.4
20180421103215 14 112 3.2 9.7 0.41 0.74 0.86 97 1020.4
20180421102713 14 112 6.4 11.3 0.41 0.74 0.74 97 1020.4
20180421102217 14 112 4.8 11.3 0.41 0.64 0.64 97 1019.4
20180421101721 14 158 4.8 11.3 0.41 0.64 0.64 97 1019.4
20180421101219 14 158 3.2 6.4 0.30 0.53 0.53 97 1019.4
20180421100723 14 158 6.4 4.8 0.30 0.53 0.53 97 1018.4
20180421100213 14 158 4.8 0.0 0.43 0.53 0.53 96 1018.4
20180421095717 14 202 0.0 6.4 0.43 0.53 0.53 96 1018.4
20180421095215 14 180 0.0 9.7 0.33 0.43 0.43 96 1018.4
20180421094719 14 180 0.0 9.7 0.33 0.43 0.43 96 1018.4
20180421094217 14 180 3.2 17.7 0.33 0.43 0.43 96 1018.4
20180421093714 14 202 3.2 17.7 0.33 0.43 0.43 96 1018.4
20180421093219 14 202 6.4 24.1 0.23 0.33 0.33 95 1018.4
20180421092719 14 135 9.7 27.4 0.23 0.33 0.33 94 1018.4
20180421092214 14 135 11.3 35.4 0.13 0.23 0.23 92 1018.4
20180421091718 14 158 16.1 35.4 0.13 0.23 0.23 92 1018.4
20180421091213 14 112 20.9 30.6 0.13 0.23 0.23 92 1018.4
20180421090714 14 158 22.5 30.6 0.13 0.23 0.10 92 1016.3
20180421090212 14 112 17.7 33.8 0.00 0.10 0.10 91 1016.3
20180421085718 14 112 17.7 33.8 0.00 0.10 0.10 91 1016.3
20180421085209 14 90 17.7 33.8 0.00 0.10 0.10 90 1016.3
20180421084721 14 158 20.9 32.2 0.00 0.10 0.10 90 1016.3
20180421084212 14 90 22.5 32.2 0.00 0.10 0.10 89 1016.3
20180421083712 15 112 24.1 32.2 0.00 0.10 0.10 88 1014.3
20180421083219 15 68 22.5 35.4 0.00 0.10 0.10 86 1014.3
20180421082712 15 68 20.9 35.4 0.00 0.10 0.10 86 1014.3
20180421082214 15 112 22.5 35.4 0.00 0.10 0.10 86 1014.3
20180421081714 15 112 20.9 32.2 0.00 0.10 0.10 87 1014.3
20180421081210 15 112 14.5 54.7 0.00 0.10 0.10 88 1014.3
20180421080721 15 90 22.5 54.7 0.00 0.10 0.10 88 1014.3
20180421080218 14 68 25.7 54.7 0.00 0.10 0.10 89 1014.3
20180421075713 14 112 29.0 45.1 0.00 0.10 0.10 88 1014.3
20180421075220 15 68 33.8 45.1 0.00 0.10 0.10 88 1013.2
20180421074719 15 90 24.1 38.6 0.00 0.10 0.10 88 1013.2
20180421074213 15 90 25.7 38.6 0.00 0.10 0.10 89 1013.2
20180421073716 15 68 29.0 38.6 0.00 0.10 0.10 89 1013.2
20180421073218 15 68 19.3 41.8 0.00 0.10 0.10 89 1013.2
20180421072721 14 68 30.6 41.8 0.00 0.10 0.10 89 1013.2
20180421072219 14 68 25.7 41.8 0.00 0.10 0.10 89 1015.3
20180421071720 14 68 29.0 37.0 0.00 0.10 0.10 89 1015.3
20180421071220 14 68 27.4 32.2 0.00 0.10 0.10 90 1015.3
20180421070716 14 68 24.1 32.2 0.00 0.10 0.10 90 1014.3
20180421070212 14 68 25.7 32.2 0.00 0.10 0.10 91 1014.3
20180421065717 14 68 24.1 32.2 0.00 0.10 0.10 91 1014.3
20180421065219 14 68 20.9 27.4 0.00 0.10 0.10 92 1014.3
20180421064717 14 45 22.5 27.4 0.00 0.10 0.10 94 1014.3
20180421064218 14 68 17.7 24.1 0.00 0.10 0.10 95 1014.3
20180421063723 14 22 17.7 32.2 0.00 0.10 0.10 96 1014.3
20180421063219 14 68 22.5 32.2 0.00 0.10 0.10 96 1014.3
20180421062714 14 68 14.5 33.8 0.00 0.10 0.10 96 1014.3
20180421062223 13 22 17.7 33.8 0.00 0.10 0.10 96 1015.3
20180421061720 13 22 20.9 32.2 0.00 0.10 0.10 96 1015.3
20180421061219 13 22 27.4 30.6 0.00 0.10 0.10 96 1015.3
20180421060713 13 68 17.7 19.3 0.00 0.10 0.10 96 1016.3
20180421060219 13 68 16.1 19.3 0.00 0.10 0.10 96 1016.3
20180421055719 14 68 14.5 20.9 0.00 0.10 0.10 96 1016.3
20180421055223 13 68 16.1 20.9 0.00 0.10 0.10 96 1016.3
20180421054717 13 112 14.5 20.9 0.00 0.10 0.10 96 1016.3
20180421054219 13 68 14.5 20.9 0.00 0.10 0.10 96 1016.3
20180421053717 13 22 11.3 19.3 0.00 0.10 0.10 96 1016.3
20180421053220 13 68 12.9 19.3 0.00 0.10 0.10 96 1016.3
20180421052724 14 68 14.5 16.1 0.00 0.10 0.10 96 1016.3
20180421052225 14 68 14.5 16.1 0.00 0.10 0.10 96 1016.3
20180421051711 14 68 11.3 17.7 0.00 0.10 0.10 96 1016.3
20180421051211 13 68 11.3 17.7 0.00 0.10 0.10 96 1016.3
20180421050720 13 68 12.9 17.7 0.00 0.10 0.10 96 1016.3
20180421050219 13 68 12.9 17.7 0.00 0.10 0.10 96 1016.3
20180421045722 14 45 14.5 14.5 0.00 0.10 0.10 96 1016.3
20180421045223 14 45 11.3 9.7 0.00 0.10 0.10 96 1016.3
20180421044716 14 68 8.0 9.7 0.00 0.10 0.10 96 1016.3
20180421044219 13 68 8.0 9.7 0.00 0.10 0.10 96 1016.3
20180421043721 13 68 6.4 9.7 0.00 0.10 0.10 96 1017.4
20180421043222 13 68 6.4 9.7 0.00 0.10 0.10 96 1017.4
20180421042724 13 68 8.0 9.7 0.00 0.10 0.10 96 1017.4
20180421042221 13 90 8.0 9.7 0.00 0.10 0.10 96 1016.3
20180421041721 13 68 4.8 9.7 0.00 0.10 0.10 96 1016.3
20180421041220 13 68 4.8 12.9 0.10 0.10 0.10 96 1016.3
20180421040720 13 22 6.4 12.9 0.10 0.10 0.10 96 1017.4
20180421040219 13 22 8.0 14.5 0.10 0.10 0.10 96 1017.4
20180421035721 13 22 9.7 14.5 0.10 0.10 0.10 96 1017.4
20180421035221 13 0 9.7 14.5 0.10 0.10 0.10 96 1017.4
20180421034718 13 22 9.7 12.9 0.10 0.10 0.10 96 1017.4
20180421034215 13 0 9.7 12.9 0.10 0.10 0.10 96 1017.4
20180421033720 13 22 9.7 12.9 0.10 0.10 0.10 96 1018.4
20180421033217 13 0 9.7 9.7 0.10 0.10 0.10 96 1018.4
20180421032716 13 0 8.0 8.0 0.10 0.10 0.10 96 1018.4
20180421032216 13 22 4.8 6.4 0.10 0.10 0.10 96 1018.4
20180421031716 13 0 4.8 6.4 0.10 0.10 0.10 96 1018.4
20180421031217 13 0 4.8 6.4 0.00 0.00 0.10 96 1018.4
20180421030719 13 338 3.2 11.3 0.00 0.00 0.00 96 1017.4
20180421030218 13 338 4.8 12.9 0.00 0.00 0.00 96 1017.4
20180421025717 13 338 3.2 12.9 0.00 0.00 0.00 96 1017.4
20180421025221 13 292 6.4 12.9 0.00 0.00 0.00 96 1018.4
20180421024722 13 270 8.0 12.9 0.00 0.00 0.00 96 1018.4
20180421024212 13 248 8.0 12.9 0.00 0.00 0.00 96 1018.4
20180421023717 13 248 8.0 12.9 0.00 0.00 0.00 96 1018.4
20180421023219 13 248 9.7 12.9 0.00 0.00 0.00 96 1018.4
20180421022720 13 248 9.7 12.9 0.00 0.00 0.00 96 1018.4
20180421022213 13 248 9.7 12.9 0.00 0.00 0.00 95 1017.4
20180421021719 13 248 8.0 16.1 0.00 0.00 0.00 95 1017.4
20180421021214 14 292 4.8 16.1 0.00 0.00 0.00 95 1017.4
20180421020715 14 248 9.7 16.1 0.00 0.00 0.00 95 1018.4
20180421020217 14 248 9.7 11.3 0.00 0.00 0.00 95 1018.4
20180421015725 14 225 11.3 9.7 0.00 0.00 0.00 95 1018.4
20180421015219 14 248 6.4 9.7 0.00 0.00 0.00 95 1018.4
20180421014724 14 202 6.4 9.7 0.00 0.00 0.00 94 1018.4
20180421014214 14 248 8.0 9.7 0.00 0.00 0.00 94 1018.4
20180421013721 14 248 6.4 9.7 0.00 0.00 0.00 92 1017.4
20180421013218 14 248 6.4 6.4 0.00 0.00 0.00 91 1017.4
20180421012716 14 315 6.4 8.0 0.00 0.00 0.00 91 1017.4
20180421012219 14 292 4.8 8.0 0.00 0.00 0.00 91 1018.4
20180421011716 14 315 4.8 8.0 0.00 0.00 0.00 91 1018.4
20180421011215 14 338 8.0 6.4 0.00 0.00 0.00 91 1018.4
20180421010719 14 292 6.4 9.7 0.00 0.00 0.00 92 1018.4
20180421010215 14 292 3.2 9.7 0.00 0.00 0.00 92 1018.4
20180421005720 14 315 6.4 9.7 0.00 0.00 0.00 92 1018.4
20180421005216 14 292 4.8 8.0 0.00 0.00 0.00 92 1018.4
20180421004719 14 248 3.2 8.0 0.00 0.00 0.00 92 1018.4
20180421004223 14 248 3.2 11.3 0.00 0.00 0.00 92 1018.4
20180421003718 14 248 3.2 11.3 0.00 0.00 0.00 91 1018.4
20180421003212 14 248 4.8 14.5 0.00 0.00 0.00 91 1018.4
20180421002715 14 248 6.4 14.5 0.00 0.00 0.00 90 1018.4
20180421002215 15 270 8.0 14.5 0.00 0.00 0.00 90 1017.4
20180421001719 15 248 8.0 14.5 0.00 0.00 0.00 89 1017.4
20180421001218 15 248 11.3 12.9 0.00 0.00 0.00 87 1017.4
20180421000722 15 248 9.7 12.9 0.00 0.00 0.00 86 1017.4
20180421000212 15 202 9.7 12.9 0.00 0.00 0.00 86 1017.4
20180420235715 15 248 6.4 14.5 0.00 0.00 0.00 86 1017.4
20180420235212 15 202 4.8 14.5 0.00 0.00 0.00 87 1017.4
20180420234718 15 202 6.4 14.5 0.00 0.00 0.00 87 1017.4
20180420234218 15 202 8.0 12.9 0.00 0.00 0.00 86 1017.4
20180420233721 15 202 6.4 14.5 0.00 0.00 0.00 84 1017.4
20180420233219 15 112 6.4 14.5 0.00 0.00 0.00 84 1017.4
20180420232711 15 90 9.7 14.5 0.00 0.00 0.00 84 1017.4
20180420232220 15 112 11.3 14.5 0.00 0.00 0.00 84 1016.3
20180420231721 15 68 14.5 14.5 0.00 0.00 0.00 84 1016.3
20180420231215 15 68 12.9 14.5 0.00 0.00 0.00 84 1016.3
20180420230714 15 68 11.3 16.1 0.00 0.00 0.00 84 1016.3
20180420230210 15 68 12.9 16.1 0.00 0.00 0.00 84 1016.3
20180420225716 15 90 12.9 16.1 0.00 0.00 0.00 83 1016.3
20180420225218 15 68 12.9 14.5 0.00 0.00 0.00 83 1016.3
20180420224720 15 68 12.9 12.9 0.00 0.00 0.00 82 1016.3
20180420224221 15 112 11.3 14.5 0.00 0.00 0.00 81 1016.3
20180420223719 15 68 9.7 14.5 0.00 0.00 0.00 81 1016.3
20180420223219 16 68 9.7 12.9 0.00 0.00 0.00 80 1016.3
20180420222709 16 68 11.3 12.9 0.00 0.00 0.00 80 1016.3
20180420222213 16 90 9.7 14.5 0.00 0.00 0.00 79 1016.3
20180420221717 16 112 9.7 14.5 0.00 0.00 0.00 79 1016.3
20180420221219 16 68 11.3 14.5 0.00 0.00 0.00 79 1016.3
20180420220720 16 68 9.7 14.5 0.00 0.00 0.00 79 1017.4
20180420220219 16 90 11.3 16.1 0.00 0.00 0.00 79 1017.4
20180420215719 16 90 11.3 16.1 0.00 0.00 0.00 79 1017.4
20180420215210 16 68 11.3 16.1 0.00 0.00 0.00 79 1017.4
20180420214719 16 68 11.3 16.1 0.00 0.00 0.00 79 1017.4
20180420214218 16 90 11.3 14.5 0.00 0.00 0.00 79 1017.4
20180420213719 16 90 9.7 11.3 0.00 0.00 0.00 79 1017.4
20180420213219 16 112 8.0 9.7 0.00 0.00 0.00 76 1017.4
20180420212718 16 68 8.0 12.9 0.00 0.00 0.00 76 1017.4
20180420212219 16 90 6.4 14.5 0.00 0.00 0.00 75 1017.4
20180420211718 16 68 6.4 17.7 0.00 0.00 0.00 74 1017.4
20180420211220 16 68 6.4 20.9 0.00 0.00 0.00 73 1017.4
20180420210721 16 45 8.0 20.9 0.00 0.00 0.00 73 1016.3
20180420210219 16 45 11.3 20.9 0.00 0.00 0.00 74 1016.3
20180420205723 16 22 12.9 20.9 0.00 0.00 0.00 74 1016.3
20180420204216 16 22 16.1 17.7 0.00 0.00 0.00 74 1017.4
20180420203716 16 22 12.9 16.1 0.00 0.00 0.00 74 1017.4
20180420203214 16 22 11.3 17.7 0.00 0.00 0.00 74 1017.4
20180420201215 16 22 9.7 17.7 0.00 0.00 0.00 75 1017.4
20180420200721 16 22 14.5 14.5 0.00 0.00 0.00 75 1018.4
20180420200218 16 22 14.5 9.7 0.00 0.00 0.00 76 1018.4
20180420195717 16 22 11.3 6.4 0.00 0.00 0.00 76 1018.4
20180420195218 17 22 8.0 6.4 0.00 0.00 0.00 74 1018.4
20180420194727 17 22 3.2 6.4 0.00 0.00 0.00 73 1018.4
20180420191717 17 270 6.4 14.5 0.00 0.00 0.00 73 1018.4